This demonstration page uses our WeatherBlox Daily Observations layout. Learn more.

Left ArrowRight Arrow

53.62937, 11.41316

Hourly Observations for August 13, 2021

Temp ( °F °C ) Dew Point ( °F °C ) Humidity (%) Winds ( mph kmh ) Pressure ( in mb ) Visibility ( mi km ) Precip ( " mm )
5:50 am 05:50 Mostly Clear 63 17 61 16 94 94 VRB 1 2 30.06 1018 30 48 N/A
6:20 am 06:20 Mostly Sunny 63 17 61 16 94 94 VRB 1 2 30.09 1019 7 11 N/A
6:50 am 06:50 Mostly Sunny 63 17 61 16 94 94 VRB 1 2 30.09 1019 7 11 N/A
7:20 am 07:20 Mostly Sunny 63 17 61 16 94 94 N N/A 30.09 1019 7 11 N/A
7:50 am 07:50 Mostly Sunny 66 19 61 16 83 83 VRB 1 2 30.09 1019 7 11 N/A
8:20 am 08:20 Mostly Sunny 70 21 63 17 78 78 VRB 2 4 30.09 1019 7 11 N/A
8:50 am 08:50 Mostly Sunny 70 21 63 17 78 78 SSE 3 6 30.09 1019 7 11 N/A
9:20 am 09:20 Mostly Sunny 73 23 63 17 69 69 S 5 7 30.09 1019 7 11 N/A
9:50 am 09:50 Mostly Sunny 75 24 61 16 61 61 S 7 11 30.09 1019 7 11 N/A
10:20 am 10:20 Mostly Sunny 75 24 61 16 61 61 S 8 13 30.09 1019 7 11 N/A
10:50 am 10:50 Mostly Sunny 75 24 59 15 57 57 SW 10 17 30.09 1019 7 11 N/A
11:20 am 11:20 Mostly Sunny 77 25 59 15 54 54 SSW 10 17 30.09 1019 30 48 N/A
11:50 am 11:50 Mostly Sunny 77 25 59 15 54 54 SSW 10 17 30.09 1019 30 48 N/A
12:20 pm 12:20 Mostly Sunny 79 26 61 16 54 54 S 10 17 30.09 1019 30 48 N/A
12:50 pm 12:50 Mostly Sunny 79 26 59 15 51 51 S 10 17 30.09 1019 30 48 N/A
1:20 pm 13:20 Mostly Sunny 79 26 61 16 54 54 SSW 10 17 30.06 1018 30 48 N/A
1:50 pm 13:50 Partly Cloudy 81 27 61 16 51 51 S 10 17 30.06 1018 30 48 N/A
2:20 pm 14:20 Partly Cloudy 79 26 61 16 54 54 SSW 9 15 30.06 1018 30 48 N/A
2:50 pm 14:50 Partly Cloudy 79 26 61 16 54 54 VRB 9 15 30.06 1018 30 48 N/A
3:20 pm 15:20 Partly Cloudy 79 26 61 16 54 54 SSW 12 19 30.06 1018 30 48 N/A
3:50 pm 15:50 Partly Cloudy 79 26 61 16 54 54 SSW 13 20 30.06 1018 30 48 N/A
4:20 pm 16:20 Partly Cloudy 79 26 61 16 54 54 SW 14 22 30.06 1018 30 48 N/A
4:50 pm 16:50 Partly Cloudy 79 26 61 16 54 54 SW 13 20 30.06 1018 30 48 N/A
5:20 pm 17:20 Partly Cloudy 79 26 61 16 54 54 SW 12 19 30.03 1017 30 48 N/A
5:50 pm 17:50 Partly Cloudy 77 25 61 16 57 57 SW 10 17 30.03 1017 30 48 N/A
6:20 pm 18:20 Partly Cloudy 75 24 63 17 65 65 WSW 10 17 30.06 1018 30 48 N/A
6:50 pm 18:50 Mostly Sunny 73 23 63 17 69 69 WSW 10 17 30.06 1018 30 48 N/A
7:20 pm 19:20 Mostly Sunny 72 22 59 15 65 65 WSW 10 17 30.06 1018 30 48 N/A
7:50 pm 19:50 Mostly Sunny 70 21 59 15 69 69 WSW 8 13 30.09 1019 7 11 N/A
8:20 pm 20:20 Mostly Sunny 68 20 57 14 69 69 WSW 7 11 30.09 1019 7 11 N/A
8:50 pm 20:50 Mostly Sunny 66 19 55 13 68 68 WSW 5 7 30.09 1019 7 11 N/A
9:20 pm 21:20 Mostly Clear 66 19 55 13 68 68 WSW 5 7 30.09 1019 7 11 N/A
9:50 pm 21:50 Mostly Clear 64 18 55 13 73 73 WSW 6 9 30.12 1020 7 11 N/A

Powered by AerisWeather